Regional Weather Roundup
Issued by NWS Grand Forks, ND

Home | Current Version | Previous Version | Graphics & Text | Print | Product List | Glossary On
Versions: 1 2 3 4 5 6 7 8 9 10 11 12 13 14 15 16 17 18 19 20 21 22 23 24 25 26 27 28 29 30 31 32 33 34 35 36 37 38 39 40 41 42 43 44 45 46 47 48 49 50
000
ASUS43 KFGF 060331
RWRFGF
PRAIRIE TO PINES  WEATHER ROUNDUP
NATIONAL WEATHER SERVICE EASTERN NORTH DAKOTA/GRAND FORKS ND
1000 PM CDT TUE MAY 05 2015

 **SATELLITE DATA USED TO AUGMENT SKY COVER AT AUTOMATED STATIONS**
 *****  WEATHER ACROSS EASTERN NORTH DAKOTA  *****

CITY           SKY/WX    TMP DP  RH WIND       PRES   REMARKS
GRAND FORKS    PTCLDY    69  47  45 S13       29.96R
GRAND FRKS AFB CLEAR     70  49  47 S15       29.95R
GRAND FRKS NWS   N/A     64 N/A N/A S12         N/A
DEVILS LAKE    CLEAR     64  45  48 SE14      29.91R
FARGO          PTCLDY    68  53  58 SE17G26   29.98R
WAHPETON ARPT  CLOUDY    63  50  63 SE20      30.01R
$$

 ***** WEATHER ACROSS CENTRAL AND WESTERN NORTH DAKOTA  *****

CITY           SKY/WX    TMP DP  RH WIND       PRES   REMARKS
BISMARCK       PTCLDY    61  48  62 SE6       29.85S
MINOT          CLEAR     64  35  34 SE6       29.82S
JAMESTOWN      MOCLDY    67  51  56 SE16      29.92R
MINOT AFB      CLEAR     58  34  40 SE10      29.81R
GARRISON         N/A     62  44  51 S9        29.83R
WILLISTON      PTCLDY    68  49  50 S8        29.77R
DICKINSON      PTCLDY    60  50  69 SE13      29.79S
HETTINGER      MOCLDY    61  51  70 SE13      29.81F
$$

 *****  OTHER AIRPORT OBSERVATIONS IN OUR AREA  *****

CITY           SKY/WX    TMP DP  RH WIND       PRES   REMARKS
WALHALLA       MOCLDY    63  27  25 SE7       29.94S
GRAFTON AIRPOR FAIR      64  34  32 SE13      29.96S
VALLEY CITY AR FAIR      64  55  72 SE18G24   29.96R
CANDO          FAIR      61  30  31 SE12      29.91S
CAVALIER APRT  FAIR      64  27  24 SE8       29.94S
GWINNER        CLEAR     64  54  68 SE18      29.98R
SHEYENNE NWR     N/A     64  54  68 SE13      29.95S
ROLLA          NOT AVBL
 ***** THE ABOVE OBSERVATIONS ARE NON NWS ARE NOT QUALITY
       CONTROLLED AND MAY MIS-REPORT RAIN FOR SNOW...
$$

  *****  WEATHER ACROSS NORTHERN MINNESOTA  *****

CITY           SKY/WX    TMP DP  RH WIND       PRES   REMARKS
FLAG ISLAND    PTCLDY    63  34  34 SE5       30.03S
WARROAD        MOCLDY    64  34  32 SE12      30.04S
ROSEAU         MOCLDY    66  27  22 SE12      30.02S
HALLOCK        PTCLDY    68  18  14 SE13      29.96S
THF RVR FALLS  PTCLDY    64  36  34 SE9       30.01S
BAUDETTE       PTCLDY    59  33  37 SE6       30.06R
WASKISH        FAIR      61  37  41 CALM      30.07S
CROOKSTON      FAIR      68  46  45 S15       30.00R
STEPHEN NDAWN    N/A     61  25  25 SE7         N/A
GREENBUSH NDAW   N/A     63  28  27 SE9         N/A
$$
  *****  WEATHER ACROSS CENTRAL AND WEST MINNESOTA  *****

CITY           SKY/WX    TMP DP  RH WIND       PRES   REMARKS
FOSSTON        CLOUDY    64  39  39 SE7       30.03S
BEMIDJI        CLOUDY    64  39  40 SE10      30.06R
PARK RAPIDS    CLOUDY    67  43  41 SE16      30.06R
ELBOW LAKE     CLOUDY    62  53  72 SE18G25   30.04S
WADENA         CLOUDY    63  48  59 SE10      30.07R
DETROIT LAKES  MOCLDY    63  50  63 SE13      30.05S
MOORHEAD       PTCLDY    64  52  63 S17       30.00S
FERGUS FALLS   CLOUDY    64  54  68 SE15      30.04R
MORRIS MN      CLOUDY    61  54  77 SE20      30.04R
STAPLES        CLOUDY    63  46  55 SE8       30.08S
$$
  *****  WEATHER ELSEWHERE ACROSS MINNESOTA  *****

CITY           SKY/WX    TMP DP  RH WIND       PRES   REMARKS
DULUTH         PTCLDY    52  27  38 E7        30.17R
INTRNTL FALLS  CLEAR     54  30  40 SE6       30.08R
ELY            CLEAR     54  23  30 SE8       30.17S
CLOQUET        PTCLDY    50  28  43 E3        30.16S
WHEATON        CLOUDY    59  52  77 SE21G26   30.03S
BRAINERD       CLOUDY    64  36  35 SE12      30.11R
HIBBING        CLEAR     56  26  31 SE13      30.14R
ALEXANDRIA     CLOUDY    62  52  69 SE20      30.08R
SAINT CLOUD    LGT RAIN  61  52  72 SE16      30.10S
MINNEAPOLIS    CLOUDY    57  53  86 SE13      30.14S
$$

  *****  WEATHER ACROSS SOUTH DAKOTA  *****

CITY           SKY/WX    TMP DP  RH WIND       PRES   REMARKS
SIOUX FALLS    CLOUDY    63  59  87 E16       29.99S
BROOKINGS      CLOUDY    61  57  88 SE18G25   30.02R
WATERTOWN      CLOUDY    60  56  86 SE12      30.00R
HURON          CLOUDY    62  58  86 SE8       29.94R
SISSETON         N/A     61  55  81 S16       29.99R
ABERDEEN       CLOUDY    65  56  72 SE15      29.94R
MITCHELL       CLOUDY    64  58  80 SE13      29.94S
PIERRE         LGT RAIN  58  56  93 SE9       29.88S
MOBRIDGE       CLOUDY    61  53  75 SE13      29.86R
RAPID CITY     CLOUDY    60  51  72 S14       29.83S
$$

  *****  SOME WEATHER IN NEARBY STATES *****

CITY           SKY/WX    TMP DP  RH WIND       PRES   REMARKS
GLASGOW MT     MOCLDY    69  41  36 E16       29.62R
GREAT FALLS MT CLOUDY    56  45  66 SE6       29.77R
CHEYENNE WY    LGT RAIN  47  45  93 CALM      29.85S
SCOTTSBLUFF NE LGT RAIN  54  54 100 E15       29.83S FOG
OMAHA NE       CLOUDY    72  58  61 SE15      29.98R
DES MOINES IA  MOCLDY    73  57  57 SE8       30.05R
DAVENPORT IA   CLOUDY    59  57  93 E14       30.16S FOG
CHICAGO IL     CLOUDY    48  46  93 N10       30.21F FOG
EAU CLAIRE WI  CLOUDY    58  46  64 SE12      30.19R
LA CROSSE WI   CLOUDY    56  53  90 SE3       30.19R
$$

  *****  SOME NATIONAL WEATHER *****

CITY           SKY/WX    TMP DP  RH WIND       PRES   REMARKS
LA GUARDIA NY  MOCLDY    68  53  58 S3        30.17S
RALEIGH NC     PTCLDY    68  51  54 S7        30.29R
ATLANTA GA     PTCLDY    71  51  49 SE3       30.24R
NEW ORLEANS LA PTCLDY    72  61  68 SE10      30.12R
OKLAHOMA CITY  CLOUDY    67  64  90 SE20G28   29.90R
ALBUQUERQUE NM MOCLDY    54  46  74 S3        29.94R
SALT LAKE CITY TSTM      59  50  72 NW20      29.79R
LOS ANGELES CA PTCLDY    59  51  75 W9        29.94S
BOISE ID       CLEAR     63  17  17 NW18G24   29.80R
SEATTLE WA     LGT RAIN  48  45  89 NE10      30.10R FOG
$$

*** WEATHER ACROSS MANITOBA...SASKATCHEWAN AND ONTARIO ***
                ***ONTARIO***

CITY           SKY/WX    TMP DP  RH WIND       PRES   REMARKS
GERALDTON      CLEAR     50  28  43 S7        30.21S
THUNDER BAY    PTCLDY    48  28  46 VRB2      30.23R
SIOUX LOOKOUT  PTCLDY    48  34  57 SE5       30.10S
TORONTO        MOCLDY    54  34  47 CALM      30.30S
BIG TROUT LK   CLOUDY    43  19  39 N3        30.18R
PICKLE LAKE    NOT AVBL
DRYDEN         PTCLDY    61  28  29 SE8       30.09S
KENORA         MOCLDY    63  30  29 SE5       30.07S
$$
                *** MANITOBA***

CITY           SKY/WX    TMP DP  RH WIND       PRES   REMARKS
BRANDON        MOCLDY    61  32  33 SE7       29.89S
DAUPHIN        CLEAR     64  36  34 SE7       29.87R
ISLAND LAKE    MOCLDY    37  34  87 VRB2      30.14S
PILOT MOUND      N/A     59  27  29 SE10        N/A
THE PAS        MOCLDY    41  28  60 E12G23    30.01R
THOMPSON       PTCLDY    39  19  45 NE6       30.14S
WINNIPEG       PTCLDY    59  25  27 SE12      29.97R
LYNN LAKE      MOCLDY    41  18  38 NE6       30.12R
CHURCHILL      MOCLDY    19  14  79 N14       30.29R WCI   6
GILLAM         CLEAR     37  16  41 E5        30.21R
$$
                ***SASKATCHEWAN***

CITY           SKY/WX    TMP DP  RH WIND       PRES   REMARKS
ESTEVAN        MOCLDY    66  46  48 SE12      29.78R
KINDERSLEY     CLOUDY    59  37  44 E12       29.65R
LLOYDMINSTER   PTCLDY    55  39  54 E20       29.67R
PRINCE ALBERT  CLOUDY    50  37  62 E16       29.85R
REGINA         MOCLDY    68  45  42 SE16      29.71
YORKTON        CLEAR     64  39  39 SE12      29.79R
N. BATTLEFORD  CLEAR     55  41  58 E20G28    29.71R
LA RONGE       CLOUDY    45  25  45 NE12      29.96R
SASKATOON      LGT RAIN  61  52  72 SE14      29.72F
SWIFT CURRENT  CLOUDY    59  43  55 S5        29.70R
$$
NOTE: THESE ARE AUTOMATED STATIONS WITH LIMITED QUALITY CONTROL
      "FAIR" INDICATES FEW OR NO CLOUDS BELOW 12,000 FEET WITH NO
      SIGNIFICANT WEATHER AND/OR OBSTRUCTIONS TO VISIBILITY.
      SKY/WX - SKY CONDITION AND SIGNIFICANT WEATHER.
      TMP - AIR TEMPERATURE.    DP   - DEWPOINT TEMPERATURE.
      RH  - RELATIVE HUMIDITY.  PRES - PRESSURE.
      HX  - HEAT INDEX.         WCI  - WIND CHILL INDEX.
$


USA.gov is the U.S. government's official web portal to all federal, state and local government web resources and services.